| time (UTC) | temp C | wind direction | speed KPH | gust KPH | rain 1hr cm | rain 24hr cm | rain mn cm | humidity % | barometer mb |
| 20260505040044 | 15 | 284 | 1.6 | 12.9 | 0.00 | 0.00 | 0.00 | 60 | 1007.9 |
| 20260505034539 | 15 | 0 | 1.6 | 9.7 | 0.00 | 0.00 | 0.00 | 60 | 1007.9 |
| 20260505033046 | 15 | 0 | 0.0 | 8.0 | 0.00 | 0.00 | 0.00 | 60 | 1007.9 |
| 20260505031540 | 15 | 0 | 1.6 | 8.0 | 0.00 | 0.00 | 0.00 | 60 | 1007.9 |
| 20260505030038 | 15 | 221 | 1.6 | 8.0 | 0.00 | 0.00 | 0.00 | 58 | 1007.8 |
| 20260505024536 | 15 | 0 | 0.0 | 11.3 | 0.00 | 0.00 | 0.00 | 59 | 1007.8 |
| 20260505023039 | 16 | 0 | 1.6 | 11.3 | 0.00 | 0.00 | 0.00 | 57 | 1007.8 |
| 20260505021536 | 16 | 196 | 1.6 | 12.9 | 0.00 | 0.00 | 0.00 | 57 | 1008.0 |
| 20260505020041 | 16 | 202 | 3.2 | 8.0 | 0.00 | 0.00 | 0.00 | 55 | 1008.0 |
| 20260505014539 | 16 | 203 | 0.0 | 9.7 | 0.00 | 0.00 | 0.00 | 55 | 1008.0 |
| 20260505013038 | 16 | 0 | 0.0 | 14.5 | 0.00 | 0.00 | 0.00 | 54 | 1007.8 |
| 20260505011548 | 17 | 0 | 0.0 | 9.7 | 0.00 | 0.00 | 0.00 | 54 | 1007.8 |
| 20260505010039 | 16 | 0 | 0.0 | 9.7 | 0.00 | 0.00 | 0.00 | 53 | 1007.6 |
| 20260505004541 | 17 | 0 | 0.0 | 3.2 | 0.00 | 0.00 | 0.00 | 50 | 1007.5 |
| 20260505003038 | 17 | 0 | 0.0 | 4.8 | 0.00 | 0.00 | 0.00 | 48 | 1007.2 |
| 20260505001537 | 18 | 0 | 0.0 | 0.0 | 0.00 | 0.00 | 0.00 | 47 | 1007.1 |
| 20260505000040 | 18 | 0 | 0.0 | 6.4 | 0.00 | 0.00 | 0.00 | 45 | 1006.9 |
| 20260504234537 | 19 | 0 | 0.0 | 3.2 | 0.00 | 0.00 | 0.00 | 44 | 1007.0 |
| 20260504233041 | 20 | 0 | 0.0 | 8.0 | 0.00 | 0.00 | 0.00 | 41 | 1006.9 |
| 20260504231541 | 20 | 195 | 3.2 | 19.3 | 0.00 | 0.00 | 0.00 | 38 | 1006.7 |
| 20260504230039 | 21 | 209 | 0.0 | 9.7 | 0.00 | 0.00 | 0.00 | 35 | 1006.7 |
| 20260504224541 | 22 | 0 | 0.0 | 17.7 | 0.00 | 0.00 | 0.00 | 32 | 1006.7 |
| 20260504223037 | 22 | 163 | 3.2 | 14.5 | 0.00 | 0.00 | 0.00 | 35 | 1006.8 |
| 20260504221538 | 22 | 161 | 1.6 | 12.9 | 0.00 | 0.00 | 0.00 | 32 | 1006.8 |
| 20260504220036 | 22 | 178 | 3.2 | 16.1 | 0.00 | 0.00 | 0.00 | 33 | 1007.0 |
| 20260504214548 | 22 | 0 | 6.4 | 19.3 | 0.00 | 0.00 | 0.00 | 32 | 1007.0 |
| 20260504213047 | 22 | 161 | 3.2 | 16.1 | 0.00 | 0.00 | 0.00 | 34 | 1006.9 |
| 20260504211538 | 22 | 198 | 9.7 | 25.7 | 0.00 | 0.00 | 0.00 | 31 | 1006.9 |
| 20260504210037 | 21 | 163 | 8.0 | 19.3 | 0.00 | 0.00 | 0.00 | 34 | 1007.3 |
| 20260504204539 | 22 | 200 | 4.8 | 20.9 | 0.00 | 0.00 | 0.00 | 33 | 1007.2 |
| 20260504203041 | 22 | 321 | 3.2 | 14.5 | 0.00 | 0.00 | 0.00 | 33 | 1007.2 |
| 20260504201538 | 22 | 229 | 1.6 | 14.5 | 0.00 | 0.00 | 0.00 | 36 | 1007.3 |
| 20260504200043 | 21 | 117 | 8.0 | 20.9 | 0.00 | 0.00 | 0.00 | 38 | 1007.5 |
| 20260504194546 | 21 | 0 | 4.8 | 17.7 | 0.00 | 0.00 | 0.00 | 42 | 1007.7 |
| 20260504193040 | 20 | 194 | 4.8 | 19.3 | 0.00 | 0.00 | 0.00 | 38 | 1008.0 |
| 20260504191551 | 21 | 205 | 8.0 | 17.7 | 0.00 | 0.00 | 0.00 | 40 | 1008.1 |
| 20260504190043 | 21 | 197 | 4.8 | 12.9 | 0.00 | 0.00 | 0.00 | 42 | 1008.2 |
| 20260504184551 | 21 | 192 | 0.0 | 19.3 | 0.00 | 0.00 | 0.00 | 46 | 1008.3 |
| 20260504183047 | 20 | 157 | 4.8 | 25.7 | 0.00 | 0.00 | 0.00 | 42 | 1008.6 |
| 20260504181545 | 21 | 166 | 6.4 | 17.7 | 0.00 | 0.00 | 0.00 | 42 | 1008.8 |
| 20260504180041 | 20 | 339 | 3.2 | 16.1 | 0.00 | 0.00 | 0.00 | 44 | 1008.8 |
| 20260504174542 | 20 | 202 | 6.4 | 27.4 | 0.00 | 0.00 | 0.00 | 44 | 1008.9 |
| 20260504173040 | 19 | 254 | 4.8 | 20.9 | 0.00 | 0.00 | 0.00 | 44 | 1009.0 |
| 20260504171538 | 19 | 194 | 6.4 | 22.5 | 0.00 | 0.00 | 0.00 | 45 | 1008.9 |
| 20260504081541 | 5 | 0 | 1.6 | 4.8 | 0.00 | 0.00 | 0.00 | 80 | 1011.7 |
| 20260504044543 | 7 | 0 | 0.0 | 1.6 | 0.00 | 0.00 | 0.00 | 71 | 1012.1 |
| 20260504043040 | 7 | 0 | 0.0 | 0.0 | 0.00 | 0.00 | 0.00 | 69 | 1012.1 |
| 20260504041538 | 8 | 0 | 0.0 | 1.6 | 0.00 | 0.00 | 0.00 | 69 | 1012.1 |